Printer-friendly version

IAU Minor Planet Center

Minor Planet Center

MPEC 2006-A13 : 2005 YO180

The following Minor Planet Electronic Circular may be linked-to from your own Web pages, but must not otherwise be redistributed electronically.


Read MPEC 2006-A12 Read MPEC 2006-A14


M.P.E.C. 2006-A13                                Issued 2006 Jan. 4, 12:12 UT

     The Minor Planet Electronic Circulars contain information on unusual
         minor planets and routine data on comets.  They are published
   on behalf of Commission 20 of the International Astronomical Union by the
          Minor Planet Center, Smithsonian Astrophysical Observatory,
                          Cambridge, MA 02138, U.S.A.

                  Supported in part by the Brinson Foundation
                  Supported in part by the TABASGO Foundation
             Prepared using the Tamkin Foundation Computer Network

                              MPC@CFA.HARVARD.EDU
          URL http://cfa-www.harvard.edu/iau/mpc.html  ISSN 1523-6714

                                  2005 YO180

Observations:
     K05YI0O*2C2005 12 29.64361914 28 47.270-11 58 51.57         21.5 R EA013568
     K05YI0O 2C2005 12 29.65027614 28 48.364-11 58 59.32         21.7 R EA013568
     K05YI0O 2C2005 12 29.65680314 28 49.420-11 59 06.74         21.7 R EA013568
     K05YI0O 2C2005 12 30.63241414 31 30.367-12 17 34.48         22.5 R EA013568
     K05YI0O 2C2005 12 30.63478714 31 30.747-12 17 37.16         22.5 R EA013568
     K05YI0O 2C2005 12 30.63672514 31 31.058-12 17 39.39         22.4 R EA013568
     K05YI0O 2C2005 12 31.62820914 34 13.493-12 36 09.50         22.6 R EA013568
     K05YI0O 2C2005 12 31.62998414 34 13.786-12 36 11.47         22.7 R EA013568
     K05YI0O 2C2005 12 31.63165514 34 14.056-12 36 13.25         22.5 R EA013568
     K05YI0O 2C2006 01 01.63239714 36 56.860-12 54 37.62         22.2 R EA013568
     K05YI0O 2C2006 01 01.63497014 36 57.280-12 54 40.43         22.2 R EA013568

Observer details:
568 Mauna Kea.  Observers D. Woodworth [queue observer], F. Bernardi,
    A. Boattini, D. J. Tholen.  Measurer D. J. Tholen.  2.24-m University of
    Hawaii reflector, 3.6-m Canada-France-Hawaii Telescope + MegaCam.

Orbital elements:
2005 YO180                                          PHA, Earth MOID = 0.0361 AU
Epoch 2006 Mar. 6.0 TT = JDT 2453800.5                  MPC
M  61.49723              (2000.0)            P               Q
n   0.54699951     Peri.   87.60506     -0.09247762     -0.99562498
a   1.4807376      Node     7.73936     +0.86954417     -0.08729471
e   0.4495923      Incl.    5.69830     +0.48511939     -0.03332464
P   1.80           H   20.5           G   0.15           U   7
Residuals in seconds of arc
051229 568  0.1-  0.0     051230 568  0.0   0.0     051231 568  0.1+  0.0
051229 568  0.1+  0.1-    051230 568  0.1-  0.0     060101 568  0.1-  0.0
051229 568  0.0   0.0     051231 568  0.1-  0.1-    060101 568  0.1+  0.0
051230 568  0.0   0.0     051231 568  0.1+  0.1-

Ephemeris:
2005 YO180               a,e,i = 1.48, 0.45, 6                   q = 0.8150
Date    TT    R. A. (2000) Decl.     Delta      r     Elong.  Phase     V
2006 01 05    14 45.93   -13 54.5    1.045    1.033    61.1    56.5    22.7
2006 01 15    15 11.38   -16 35.7    1.072    1.102    64.7    53.8    22.8
2006 01 25    15 34.85   -18 53.7    1.085    1.173    68.8    51.5    22.9
2006 02 04    15 56.11   -20 51.5    1.084    1.244    73.7    49.5    23.0
2006 02 14    16 14.86   -22 32.5    1.071    1.314    79.2    47.6    23.0
2006 02 24    16 30.71   -24 00.5    1.047    1.382    85.5    45.5    23.0
2006 03 06    16 43.13   -25 18.9    1.013    1.448    92.5    43.2    23.0
2006 03 16    16 51.47   -26 30.7    0.972    1.512   100.5    40.3    22.9
2006 03 26    16 54.99   -27 37.8    0.928    1.573   109.4    36.7    22.8
2006 04 05    16 52.83   -28 39.7    0.885    1.631   119.6    32.2    22.7
2006 04 15    16 44.40   -29 32.4    0.848    1.685   130.9    26.7    22.5
2006 04 25    16 29.74   -30 07.7    0.823    1.737   143.4    20.2    22.3
2006 05 05    16 10.03   -30 15.4    0.815    1.785   156.4    13.1    22.1
2006 05 15    15 48.01   -29 49.8    0.830    1.831   167.9     6.7    21.9
2006 05 25    15 27.01   -28 55.1    0.870    1.873   168.0     6.5    22.1
2006 06 04    15 09.80   -27 45.0    0.935    1.912   157.4    11.8    22.5
2006 06 14    14 57.82   -26 35.6    1.022    1.948   145.8    17.0    22.9
2006 06 24    14 51.15   -25 37.9    1.127    1.981   135.0    21.3    23.3

Timothy B. Spahr             (C) Copyright 2006 MPC           M.P.E.C. 2006-A13

Read MPEC 2006-A12 Read MPEC 2006-A14


Our Web policy. Index to the CBAT/MPC/ICQ pages.


Valid HTML 4.01!